When you browse on this site, cookies collect data to enhance your experience and personalize the content and advertising you see.
Visit our Privacy Policy to learn more. By continuing to use the site, you agree to this use of cookies and data.
  • In Czech Republic
  • List of Countries
  • For 7 days
  • Water Temperature
  • Weather Map
  • Weather Widgets
  • user-avatar
    Login

    Hourly Weather Kaprun

    Today, 23 September, Monday

    Time Temperature Precipitation Wind Pressure Humidity
    00:00 +7°C° 0 mm 1 mps 596 mmHg 84%
    01:00 +7°C° 0 mm 1 mps 596 mmHg 83%
    02:00 +7°C° 0 mm 1 mps 596 mmHg 83%
    03:00 +8°C° 0 mm 1 mps 596 mmHg 82%
    04:00 +7°C° 0 mm 0 mps 596 mmHg 82%
    05:00 +7°C° 0.1 mm 0 mps 596 mmHg 84%
    06:00 +7°C° 0.1 mm 0 mps 596 mmHg 86%
    07:00 +7°C° 0.1 mm 0 mps 596 mmHg 89%
    08:00 +8°C° 1 mm 1 mps 596 mmHg 91%
    09:00 +8°C° 1 mm 1 mps 596 mmHg 93%
    10:00 +6°C° 1 mm 2 mps 596 mmHg 95%
    11:00 +6°C° 1.7 mm 2 mps 596 mmHg 95%
    12:00 +4°C° 1.7 mm 3 mps 596 mmHg 96%
    13:00 +4°C° 1.7 mm 3 mps 596 mmHg 96%
    14:00 +3°C° 1.4 mm 3 mps 596 mmHg 96%
    15:00 +3°C° 1.4 mm 2 mps 596 mmHg 96%
    16:00 +3°C° 1.4 mm 2 mps 595 mmHg 96%
    17:00 +3°C° 0.7 mm 2 mps 596 mmHg 97%
    18:00 +3°C° 0.7 mm 2 mps 596 mmHg 97%
    19:00 +3°C° 0.7 mm 2 mps 596 mmHg 97%
    20:00 +3°C° 0.2 mm 2 mps 596 mmHg 97%
    21:00 +3°C° 0.2 mm 2 mps 597 mmHg 98%
    22:00 +4°C° 0.2 mm 1 mps 597 mmHg 98%
    23:00 +4°C° 0 mm 1 mps 597 mmHg 97%

    Tomorrow, 24 September, Tuesday

    Time Temperature Precipitation Wind Pressure Humidity
    00:00 +4°C° 0 mm 1 mps 597 mmHg 97%
    01:00 +4°C° 0 mm 1 mps 597 mmHg 97%
    02:00 +3°C° 0 mm 1 mps 596 mmHg 97%
    03:00 +2°C° 0 mm 1 mps 596 mmHg 96%
    04:00 +2°C° 0 mm 1 mps 595 mmHg 96%
    05:00 +2°C° 0 mm 1 mps 595 mmHg 95%
    06:00 +3°C° 0 mm 1 mps 596 mmHg 93%
    07:00 +3°C° 0 mm 1 mps 596 mmHg 92%
    08:00 +5°C° 0 mm 1 mps 596 mmHg 83%
    09:00 +7°C° 0 mm 1 mps 597 mmHg 75%
    10:00 +9°C° 0 mm 1 mps 598 mmHg 66%
    11:00 +11°C° 0 mm 1 mps 598 mmHg 61%
    12:00 +12°C° 0 mm 1 mps 598 mmHg 57%
    13:00 +13°C° 0 mm 1 mps 598 mmHg 52%
    14:00 +12°C° 0 mm 1 mps 598 mmHg 57%
    15:00 +12°C° 0 mm 1 mps 597 mmHg 62%
    16:00 +11°C° 0 mm 1 mps 597 mmHg 66%
    17:00 +9°C° 0 mm 1 mps 596 mmHg 75%
    18:00 +7°C° 0 mm 1 mps 595 mmHg 83%
    19:00 +4°C° 0 mm 0 mps 594 mmHg 92%
    20:00 +4°C° 0 mm 0 mps 595 mmHg 92%
    21:00 +4°C° 0 mm 0 mps 595 mmHg 92%
    22:00 +3°C° 0 mm 0 mps 595 mmHg 93%
    23:00 +4°C° 0 mm 0 mps 595 mmHg 91%

    Day after tomorrow, 25 September, Wednesday

    Time Temperature Precipitation Wind Pressure Humidity
    00:00 +5°C° 0 mm 1 mps 595 mmHg 90%
    01:00 +5°C° 0 mm 1 mps 594 mmHg 88%
    02:00 +5°C° 0.1 mm 1 mps 594 mmHg 90%
    03:00 +5°C° 0.1 mm 1 mps 594 mmHg 91%
    04:00 +4°C° 0.1 mm 1 mps 594 mmHg 92%
    05:00 +5°C° 0 mm 1 mps 594 mmHg 91%
    06:00 +5°C° 0 mm 1 mps 594 mmHg 90%
    07:00 +5°C° 0 mm 0 mps 594 mmHg 89%
    08:00 +6°C° 1.1 mm 1 mps 594 mmHg 91%
    09:00 +6°C° 1.1 mm 1 mps 594 mmHg 94%
    10:00 +6°C° 1.1 mm 1 mps 595 mmHg 96%
    11:00 +5°C° 2 mm 1 mps 594 mmHg 96%
    12:00 +4°C° 2 mm 1 mps 594 mmHg 96%
    13:00 +4°C° 2 mm 1 mps 593 mmHg 96%
    14:00 +4°C° 0.7 mm 1 mps 593 mmHg 97%
    15:00 +4°C° 0.7 mm 1 mps 594 mmHg 97%
    16:00 +4°C° 0.7 mm 1 mps 594 mmHg 97%
    17:00 +4°C° 0.6 mm 1 mps 594 mmHg 97%
    18:00 +4°C° 0.6 mm 1 mps 594 mmHg 97%
    19:00 +3°C° 0.6 mm 1 mps 594 mmHg 97%
    20:00 +3°C° 0.2 mm 1 mps 594 mmHg 97%
    21:00 +3°C° 0.2 mm 1 mps 595 mmHg 97%
    22:00 +3°C° 0.2 mm 1 mps 595 mmHg 97%
    23:00 +3°C° 0 mm 1 mps 595 mmHg 97%

    26 September, Thursday

    Time Temperature Precipitation Wind Pressure Humidity
    00:00 +3°C° 0 mm 1 mps 595 mmHg 96%
    01:00 +2°C° 0 mm 1 mps 594 mmHg 96%
    02:00 +2°C° 0 mm 1 mps 595 mmHg 96%
    03:00 +2°C° 0 mm 1 mps 595 mmHg 95%
    04:00 +2°C° 0 mm 1 mps 595 mmHg 95%
    05:00 +2°C° 0 mm 1 mps 595 mmHg 94%
    06:00 +2°C° 0 mm 1 mps 595 mmHg 94%
    07:00 +2°C° 0 mm 1 mps 596 mmHg 93%
    08:00 +4°C° 0 mm 1 mps 597 mmHg 87%
    09:00 +6°C° 0 mm 1 mps 598 mmHg 80%
    10:00 +8°C° 0 mm 1 mps 599 mmHg 74%
    11:00 +8°C° 0.1 mm 1 mps 599 mmHg 77%
    12:00 +8°C° 0.1 mm 1 mps 599 mmHg 80%
    13:00 +8°C° 0.1 mm 1 mps 599 mmHg 83%
    14:00 +8°C° 0.1 mm 1 mps 599 mmHg 82%
    15:00 +8°C° 0.1 mm 1 mps 599 mmHg 81%
    16:00 +9°C° 0.1 mm 1 mps 599 mmHg 80%
    17:00 +7°C° 0 mm 1 mps 599 mmHg 84%
    18:00 +6°C° 0 mm 1 mps 599 mmHg 88%
    19:00 +5°C° 0 mm 1 mps 598 mmHg 92%
    20:00 +5°C° 0 mm 1 mps 599 mmHg 91%
    21:00 +4°C° 0 mm 0 mps 599 mmHg 90%
    22:00 +4°C° 0 mm 0 mps 599 mmHg 89%
    23:00 +3°C° 0 mm 0 mps 599 mmHg 88%

    27 September, Friday

    Time Temperature Precipitation Wind Pressure Humidity
    00:00 +4°C° 0 mm 1 mps 598 mmHg 88%
    01:00 +3°C° 0 mm 1 mps 598 mmHg 88%
    02:00 +3°C° 0 mm 1 mps 598 mmHg 88%
    03:00 +3°C° 0 mm 1 mps 598 mmHg 87%
    04:00 +3°C° 0 mm 1 mps 598 mmHg 86%
    05:00 +4°C° 0 mm 1 mps 598 mmHg 85%
    06:00 +5°C° 0 mm 1 mps 598 mmHg 84%
    07:00 +5°C° 0 mm 1 mps 598 mmHg 83%
    08:00 +8°C° 0 mm 1 mps 599 mmHg 76%
    09:00 +10°C° 0 mm 1 mps 600 mmHg 69%
    10:00 +12°C° 0 mm 1 mps 601 mmHg 62%
    11:00 +13°C° 0 mm 1 mps 601 mmHg 60%
    12:00 +13°C° 0 mm 1 mps 601 mmHg 58%
    13:00 +14°C° 0 mm 1 mps 601 mmHg 56%
    14:00 +13°C° 0.1 mm 1 mps 601 mmHg 62%
    15:00 +13°C° 0.1 mm 1 mps 600 mmHg 68%
    16:00 +12°C° 0.1 mm 1 mps 600 mmHg 74%
    17:00 +10°C° 0.5 mm 1 mps 599 mmHg 81%
    18:00 +8°C° 0.5 mm 1 mps 598 mmHg 88%
    19:00 +6°C° 0.5 mm 1 mps 598 mmHg 95%
    20:00 +5°C° 0.2 mm 0 mps 598 mmHg 96%
    21:00 +6°C° 0.2 mm 0 mps 598 mmHg 96%
    22:00 +6°C° 0.2 mm 0 mps 599 mmHg 96%
    23:00 +6°C° 0.1 mm 0 mps 599 mmHg 96%

    28 September, Saturday

    Time Temperature Precipitation Wind Pressure Humidity
    00:00 +5°C° 0.1 mm 0 mps 598 mmHg 96%
    01:00 +5°C° 0.1 mm 0 mps 598 mmHg 96%
    02:00 +5°C° 0 mm 0 mps 598 mmHg 95%
    03:00 +5°C° 0 mm 0 mps 598 mmHg 94%
    04:00 +5°C° 0 mm 0 mps 598 mmHg 94%
    05:00 +5°C° 0 mm 0 mps 598 mmHg 94%
    06:00 +5°C° 0 mm 0 mps 598 mmHg 94%
    07:00 +5°C° 0 mm 0 mps 598 mmHg 93%
    08:00 +6°C° 0.1 mm 0 mps 599 mmHg 91%
    09:00 +8°C° 0.1 mm 1 mps 599 mmHg 89%
    10:00 +9°C° 0.1 mm 1 mps 599 mmHg 86%
    11:00 +9°C° 0.1 mm 1 mps 599 mmHg 86%
    12:00 +8°C° 0.1 mm 2 mps 599 mmHg 85%
    13:00 +8°C° 0.1 mm 2 mps 599 mmHg 84%
    14:00 +8°C° 0.1 mm 2 mps 599 mmHg 85%
    15:00 +8°C° 0.1 mm 1 mps 599 mmHg 86%
    16:00 +8°C° 0.1 mm 1 mps 598 mmHg 87%
    17:00 +7°C° 0.1 mm 1 mps 598 mmHg 91%
    18:00 +7°C° 0.1 mm 1 mps 598 mmHg 94%
    19:00 +5°C° 0.1 mm 0 mps 598 mmHg 97%
    20:00 +5°C° 0 mm 0 mps 598 mmHg 97%
    21:00 +4°C° 0 mm 0 mps 598 mmHg 97%
    22:00 +4°C° 0 mm 0 mps 598 mmHg 97%
    23:00 +4°C° 0 mm 0 mps 598 mmHg 97%
    Show more